Date String (YYYY-MM-DD hh:mm:ss) UTC,Instrument flags,absolute air pressure of the measurement (hPa),sample flow rate (lpm),inlet stack bypass flow (lpm),air temperature of the measurement (°C),ambient temperature measured by the external sensor (°C),aerosol sample conditioner tube jacket temperature (°C),OPC LED temperature (°C),internal box temperature (°C),relative humidity of the measurement (%),span deviation,mass concentration of particles derived from Lorenz-Mie calculation of OPC scattering (μg/m³),mass concentration of particles derived from Lorenz-Mie calculation of OPC scattering (μg/m³),mass concentration of particles derived from Lorenz-Mie calculation of OPC scattering (μg/m³)
DateTimeUTC,F1_M11,P_M11,Q1_M11,Q2_M11,T1_M11,T2_M11,T3_M11,T4_M11,T5_M11,U1_M11,ZSPAN_M11,X0_M11,X2_M11,X1_M11
2023-11-18 06:00:00,SystemResetWarning,0831.4,5.00,000.00,025.1,024.0,000.0,033.5,026.5,16.9,0000.0,0010.03,0003.69,0002.87
2023-11-18 06:01:00,SystemResetWarning,0831.4,5.00,000.00,025.1,024.0,000.0,033.5,026.5,16.9,0000.0,0010.04,0003.65,0002.86
2023-11-18 06:02:00,SystemResetWarning,0831.4,5.00,000.00,025.1,024.0,000.0,033.5,026.5,16.8,0000.0,0010.40,0003.64,0002.86
2023-11-18 06:03:00,SystemResetWarning,0831.4,5.01,000.00,025.1,024.0,000.0,033.5,026.4,16.8,0000.0,0010.90,0003.63,0002.86
2023-11-18 06:04:00,SystemResetWarning,0831.4,5.00,000.00,025.1,024.0,000.0,033.5,026.4,16.8,0000.0,0010.27,0003.66,0002.88
2023-11-18 06:05:00,SystemResetWarning,0831.4,4.99,000.00,025.1,023.9,000.0,033.5,026.4,16.7,0000.0,0010.13,0003.66,0002.89
2023-11-18 06:06:00,SystemResetWarning,0831.4,4.99,000.00,025.1,023.9,000.0,033.5,026.4,16.8,0000.0,0010.12,0003.61,0002.90
2023-11-18 06:07:00,SystemResetWarning,0831.4,5.01,000.00,025.1,023.9,000.0,033.5,026.4,16.8,0000.0,0010.75,0003.63,0002.92
2023-11-18 06:08:00,SystemResetWarning,0831.4,5.01,000.00,025.1,023.9,000.0,033.5,026.5,16.7,0000.0,0010.86,0003.63,0002.95
2023-11-18 06:09:00,SystemResetWarning,0831.4,5.00,000.00,025.1,023.9,000.0,033.5,026.5,16.7,0000.0,0010.75,0003.61,0002.97
2023-11-18 06:10:00,SystemResetWarning,0831.4,4.99,000.00,025.1,023.9,000.0,033.5,026.5,16.6,0000.0,0010.42,0003.61,0002.99
2023-11-18 06:11:00,SystemResetWarning,0831.4,4.99,000.00,025.1,023.9,000.0,033.5,026.4,16.5,0000.0,0009.96,0003.57,0003.01
2023-11-18 06:12:00,SystemResetWarning,0831.4,5.00,000.00,025.1,023.9,000.0,033.5,026.4,16.2,0000.0,0009.96,0003.58,0003.05
2023-11-18 06:13:00,SystemResetWarning,0831.4,5.01,000.00,025.0,023.9,000.0,033.4,026.4,16.1,0000.0,0009.49,0003.59,0003.07
2023-11-18 06:14:00,SystemResetWarning,0831.4,5.01,000.00,025.0,023.8,000.0,033.4,026.4,16.3,0000.0,0009.01,0003.63,0003.09
2023-11-18 06:15:00,SystemResetWarning,0831.4,4.99,000.00,025.0,023.8,000.0,033.4,026.3,16.4,0000.0,0008.39,0003.61,0003.09
2023-11-18 06:16:00,SystemResetWarning,0831.4,5.00,000.00,025.0,023.8,000.0,033.4,026.3,16.5,0000.0,0007.93,0003.58,0003.09
2023-11-18 06:17:00,SystemResetWarning,0831.4,4.99,000.00,025.0,023.8,000.0,033.4,026.4,16.5,0000.0,0007.88,0003.59,0003.08
2023-11-18 06:18:00,SystemResetWarning,0831.4,5.00,000.00,025.0,023.8,000.0,033.4,026.4,16.4,0000.0,0007.24,0003.57,0003.04
2023-11-18 06:19:00,SystemResetWarning,0831.3,5.00,000.00,025.0,023.8,000.0,033.4,026.3,16.5,0000.0,0006.72,0003.57,0002.99
2023-11-18 06:20:00,SystemResetWarning,0831.3,5.01,000.00,025.0,023.8,000.0,033.4,026.4,16.6,0000.0,0007.47,0003.56,0002.95
2023-11-18 06:21:00,SystemResetWarning,0831.4,5.00,000.00,025.0,023.8,000.0,033.4,026.4,16.6,0000.0,0007.54,0003.51,0002.93
2023-11-18 06:22:00,SystemResetWarning,0831.3,5.00,000.00,025.0,023.8,000.0,033.4,026.3,16.7,0000.0,0007.89,0003.50,0002.92
2023-11-18 06:23:00,SystemResetWarning,0831.4,4.99,000.00,025.0,023.8,000.0,033.4,026.3,16.7,0000.0,0007.92,0003.50,0002.89
2023-11-18 06:24:00,SystemResetWarning,0831.3,5.00,000.00,025.0,023.8,000.0,033.4,026.3,16.7,0000.0,0007.92,0003.44,0002.84
2023-11-18 06:25:00,SystemResetWarning,0831.4,4.99,000.00,025.0,023.8,000.0,033.4,026.3,16.3,0000.0,0007.86,0003.39,0002.81
2023-11-18 06:26:00,SystemResetWarning,0831.3,5.00,000.00,025.0,023.8,000.0,033.4,026.3,16.1,0000.0,0008.19,0003.36,0002.80
2023-11-18 06:27:00,SystemResetWarning,0831.4,5.01,000.00,025.0,023.8,000.0,033.4,026.3,16.0,0000.0,0008.29,0003.38,0002.81
2023-11-18 06:28:00,SystemResetWarning,0831.3,5.00,000.00,025.0,023.8,000.0,033.4,026.3,15.9,0000.0,0008.50,0003.38,0002.85
2023-11-18 06:29:00,SystemResetWarning,0831.4,5.01,000.00,025.0,023.8,000.0,033.4,026.3,15.9,0000.0,0008.59,0003.40,0002.89
2023-11-18 06:30:00,SystemResetWarning,0831.3,5.01,000.00,024.9,023.8,000.0,033.4,026.3,15.8,0000.0,0008.45,0003.39,0002.93
2023-11-18 06:31:00,SystemResetWarning,0831.3,5.00,000.00,024.9,023.8,000.0,033.3,026.3,15.7,0000.0,0007.94,0003.38,0002.94
2023-11-18 06:32:00,SystemResetWarning,0831.3,5.00,000.00,025.0,023.8,000.0,033.3,026.3,15.9,0000.0,0007.87,0003.39,0002.93
2023-11-18 06:33:00,SystemResetWarning,0831.3,5.00,000.00,024.9,023.8,000.0,033.3,026.3,16.1,0000.0,0007.83,0003.39,0002.90
2023-11-18 06:34:00,SystemResetWarning,0831.3,5.00,000.00,024.9,023.8,000.0,033.3,026.3,16.1,0000.0,0008.46,0003.40,0002.88
2023-11-18 06:35:00,SystemResetWarning,0831.3,5.00,000.00,024.9,023.8,000.0,033.3,026.3,16.0,0000.0,0008.43,0003.40,0002.87
2023-11-18 06:36:00,SystemResetWarning,0831.3,5.00,000.00,024.9,023.8,000.0,033.3,026.3,16.0,0000.0,0008.41,0003.38,0002.85
2023-11-18 06:37:00,SystemResetWarning,0831.3,5.00,000.00,024.9,023.8,000.0,033.3,026.3,15.7,0000.0,0008.19,0003.37,0002.80
2023-11-18 06:38:00,SystemResetWarning,0831.3,5.00,000.00,024.9,023.8,000.0,033.3,026.3,15.7,0000.0,0008.63,0003.36,0002.77
2023-11-18 06:39:00,SystemResetWarning,0831.3,5.00,000.00,024.9,023.8,000.0,033.3,026.3,15.8,0000.0,0009.23,0003.35,0002.73
2023-11-18 06:40:00,SystemResetWarning,0831.3,5.00,000.00,024.9,023.8,000.0,033.3,026.2,15.8,0000.0,0009.61,0003.34,0002.70
2023-11-18 06:41:00,SystemResetWarning,0831.3,5.00,000.00,024.9,023.8,000.0,033.3,026.3,16.1,0000.0,0010.08,0003.32,0002.68
2023-11-18 06:42:00,SystemResetWarning,0831.3,5.00,000.00,024.9,023.8,000.0,033.3,026.3,16.2,0000.0,0009.99,0003.30,0002.67
2023-11-18 06:43:00,SystemResetWarning,0831.3,5.00,000.00,024.9,023.8,000.0,033.3,026.2,16.2,0000.0,0009.90,0003.27,0002.64
2023-11-18 06:44:00,SystemResetWarning,0831.3,4.99,000.00,024.9,023.8,000.0,033.3,026.3,16.1,0000.0,0009.44,0003.22,0002.61
2023-11-18 06:45:00,SystemResetWarning,0831.3,5.00,000.00,024.9,023.8,000.0,033.3,026.3,16.2,0000.0,0009.19,0003.18,0002.61
2023-11-18 06:46:00,SystemResetWarning,0831.3,5.00,000.00,024.9,023.8,000.0,033.3,026.3,16.2,0000.0,0009.36,0003.17,0002.61
2023-11-18 06:47:00,SystemResetWarning,0831.3,4.99,000.00,024.9,023.9,000.0,033.3,026.3,16.1,0000.0,0009.91,0003.21,0002.62
2023-11-18 06:48:00,SystemResetWarning,0831.3,5.00,000.00,025.0,023.9,000.0,033.3,026.3,16.2,0000.0,0010.05,0003.27,0002.65
2023-11-18 06:49:00,SystemResetWarning,0831.3,5.01,000.00,025.0,023.9,000.0,033.3,026.3,16.2,0000.0,0009.65,0003.28,0002.66
2023-11-18 06:50:00,SystemResetWarning,0831.3,5.01,000.00,025.0,024.0,000.0,033.3,026.3,16.2,0000.0,0009.26,0003.31,0002.67
2023-11-18 06:51:00,SystemResetWarning,0831.3,5.00,000.00,025.0,024.0,000.0,033.3,026.4,16.3,0000.0,0008.97,0003.36,0002.68
2023-11-18 06:52:00,SystemResetWarning,0831.3,4.99,000.00,025.0,024.0,000.0,033.3,026.4,17.0,0000.0,0009.35,0003.40,0002.69
2023-11-18 06:53:00,SystemResetWarning,0831.3,4.99,000.00,025.0,024.0,000.0,033.3,026.4,17.2,0000.0,0009.85,0003.47,0002.71
2023-11-18 06:54:00,SystemResetWarning,0831.3,5.01,000.00,025.0,024.1,000.0,033.3,026.4,17.1,0000.0,0010.20,0003.55,0002.79
2023-11-18 06:55:00,SystemResetWarning,0831.3,5.01,000.00,025.0,024.1,000.0,033.3,026.3,16.7,0000.0,0010.39,0003.61,0002.84
2023-11-18 06:56:00,SystemResetWarning,0831.3,5.00,000.00,025.0,024.1,000.0,033.3,026.4,16.4,0000.0,0011.21,0003.66,0002.86
2023-11-18 06:57:00,SystemResetWarning,0831.3,4.99,000.00,025.0,024.1,000.0,033.3,026.4,16.3,0000.0,0011.54,0003.72,0002.94
2023-11-18 06:58:00,SystemResetWarning,0831.3,4.99,000.00,025.0,024.1,000.0,033.3,026.4,16.3,0000.0,0011.29,0003.84,0003.13
2023-11-18 06:59:00,SystemResetWarning,0831.3,5.00,000.00,025.1,024.1,000.0,033.3,026.4,16.7,0000.0,0011.61,0003.99,0003.27
